Volver al catálogo

GRITSS

ActivoCienciaSSO
NORAD 69931·PAYLOAD·🇺🇸 United States

Lanzado Jul 7, 2026 desde Vandenberg Space Force Base

Loading…

Próximos Pases (próximas 24 horas)

TLE

ActualizadoSource: Space-Track

Época: Sep 14, 2026, 03:11 UTC

1 69931U 26156BQ  26257.13329908  .00001158  00000-0  11840-3 0  9997
2 69931  97.7442 156.4887 0007870 289.5825  70.4544 14.92455892 10265

Sigue GRITSS en tiempo real con AllMySat

Download on the App Store